RH
16 19 21 20 18 16 15 18 24 29 29 25 23 22 23 21 17 14 15 12 10 10 10 10 9 9 10 11 10 10 11 10 9 8 7 6 6 7 8 7 7 8
15 17 19 20 18 16 15 16 21 25 26 23 21 21 20 20 16 15 14 11 8 8 7 7 7 7 9 9 9 10 9 9 8 7 6 6 5 6 8 7 7 7
13 15 17 19 18 16 14 15 18 22 23 23 22 20 20 20 17 14 13 10 7 6 6 7 6 6 7 7 8 8 8 8 7 7 7 6 6 6 7 7 7 7
10 13 14 16 16 16 14 14 16 18 20 21 21 20 19 19 16 13 11 9 7 5 6 7 6 6 7 7 7 7 7 7 7 7 7 6 6 6 6 7 7 7
8 10 12 13 14 15 15 14 14 15 17 18 18 19 19 18 15 12 9 8 7 6 6 6 6 5 6 6 7 7 6 6 6 6 6 5 6 6 6 7 7 7
7 8 10 11 12 14 14 14 14 14 15 15 16 17 18 16 14 11 9 7 6 6 6 5 5 5 5 6 6 6 6 6 7 6 5 5 5 5 6 6 7 7
5 8 9 10 11 12 13 14 13 14 13 13 14 16 16 15 13 10 8 7 6 6 6 5 5 5 5 5 5 6 6 6 7 6 5 5 5 6 7 7 8 8
5 6 7 9 9 10 12 13 12 13 13 12 13 15 14 13 12 10 8 7 6 5 5 4 4 5 4 5 5 5 6 6 7 7 6 6 6 6 7 8 8 8
9 7 5 8 8 8 11 12 12 12 12 12 12 14 14 12 11 10 8 7 6 5 5 4 4 4 4 4 4 4 6 7 8 8 7 6 6 7 7 7 8 8
8 6 6 7 7 7 9 10 12 12 11 11 12 12 13 11 10 9 8 7 6 5 5 5 4 4 4 4 4 4 5 6 8 10 10 8 7 8 8 8 9 10
8 5 6 6 6 6 7 9 10 11 11 11 11 11 11 10 9 8 8 7 6 6 5 4 4 4 4 4 4 4 5 6 8 12 13 12 12 11 12 12 12 13
10 5 6 6 6 6 5 7 8 9 10 10 10 10 10 9 9 8 7 7 6 5 5 5 4 4 4 3 3 4 5 6 8 13 16 16 17 16 16 16 16 16
12 5 6 5 6 6 5 6 7 8 9 9 10 9 9 9 8 8 7 6 6 5 5 5 4 4 4 3 3 3 4 6 8 13 17 18 18 18 18 19 19 19
22 9 5 6 6 6 5 5 5 7 8 8 9 9 8 8 7 7 7 6 6 5 4 5 4 4 4 3 4 4 4 6 8 13 17 18 19 19 19 21 21 21
37 19 8 6 6 4 5 5 5 6 6 7 8 8 8 8 7 7 7 6 6 5 4 5 4 4 5 4 4 4 4 5 8 12 16 17 19 20 20 22 22 22
55 43 25 12 7 5 5 4 4 5 5 6 7 7 8 8 6 6 6 6 5 5 4 5 4 5 5 5 4 4 4 6 8 11 15 16 18 19 21 22 22 22
68 60 39 21 13 9 6 5 5 5 5 5 6 7 7 7 7 7 6 6 5 5 4 4 4 5 5 5 5 4 4 5 7 10 13 15 17 19 21 22 22 22
67 61 43 26 16 10 8 7 5 4 5 5 5 6 6 7 7 6 6 6 5 5 5 4 4 5 5 5 5 5 5 5 6 8 10 13 16 18 20 21 21 22
60 60 52 36 21 11 8 8 7 6 5 5 4 5 5 6 7 7 7 6 5 5 4 4 4 4 5 5 5 5 5 5 5 6 8 10 13 15 18 20 21 22
66 61 59 51 37 21 10 6 7 7 5 5 5 5 5 5 6 6 6 6 6 6 5 4 5 5 4 5 5 5 5 5 5 6 6 8 10 12 15 17 19 21
84 72 64 60 54 41 25 13 7 6 7 7 5 4 5 5 5 5 6 6 6 6 6 5 4 4 5 4 4 5 5 5 5 6 6 7 7 9 12 14 16 19
93 87 76 68 63 58 47 31 17 9 6 6 6 6 5 5 5 5 4 5 6 6 6 7 6 5 5 5 5 5 5 5 5 6 6 6 6 7 9 10 12 14
87 89 87 80 71 64 59 50 37 22 11 6 6 7 7 5 5 6 5 5 5 5 5 6 6 6 6 6 6 5 5 5 5 6 6 6 7 7 7 8 9 10
80 81 85 86 80 72 66 60 51 36 22 11 5 8 15 12 5 4 6 5 5 5 5 5 5 6 6 6 6 6 6 6 5 6 6 6 7 7 6 7 7 8
76 78 82 86 86 82 74 67 62 55 44 30 16 14 18 17 14 11 7 6 6 5 4 5 5 5 5 5 6 5 5 6 5 6 6 6 7 7 6 7 6 6
67 71 76 82 89 90 84 76 70 67 64 58 48 38 29 28 32 24 9 6 9 7 6 6 5 5 5 4 5 5 4 5 5 5 5 5 5 5 5 6 6 6
Wind_Speed
16 16 17 16 16 16 16 17 17 16 15 13 11 11 12 12 11 11 10 9 9 10 10 10 9 9 8 8 8 8 8 8 8 9 9 10 10 11 12 12 12 13
18 18 18 17 16 16 17 17 18 17 16 14 12 11 11 12 11 11 10 10 10 10 11 10 10 9 9 9 9 9 9 8 9 9 9 10 11 11 12 12 12 13
19 19 19 18 17 17 17 18 18 18 17 15 13 13 12 12 12 11 11 10 11 11 11 11 11 10 10 10 9 9 9 8 9 9 9 10 10 11 12 12 11 12
21 21 21 19 18 18 17 18 18 18 17 16 15 14 14 13 13 12 11 12 12 12 11 11 11 11 10 10 9 9 8 8 8 9 9 10 10 11 11 11 11 11
24 23 22 21 19 18 18 18 18 18 18 17 16 16 15 14 14 13 12 12 12 12 12 12 11 11 10 10 9 8 8 8 8 8 9 10 10 10 11 11 11 11
26 25 24 23 21 19 19 19 19 19 19 18 18 18 17 16 15 14 13 13 13 13 12 12 11 11 10 10 10 9 8 8 8 8 9 9 10 10 10 10 11 11
27 26 25 24 23 21 20 20 20 20 19 19 20 20 19 17 16 15 14 14 14 14 13 12 12 11 11 11 10 9 8 8 8 8 9 9 10 11 11 11 10 10
28 27 26 25 24 23 22 22 22 21 21 20 21 21 20 19 17 16 15 15 15 14 14 13 12 12 11 11 10 9 9 8 8 8 9 10 10 11 11 11 11 11
28 27 26 25 24 24 23 23 23 23 22 22 23 23 22 20 19 17 16 16 16 15 14 14 13 12 12 11 11 10 9 9 8 8 8 10 10 11 11 11 11 11
28 27 27 26 25 25 24 24 25 24 24 24 24 24 23 22 20 19 18 17 17 16 16 15 14 14 13 12 12 11 11 10 9 8 8 9 10 11 11 11 10 10
29 28 28 27 26 26 26 26 26 25 25 25 25 25 25 24 22 20 19 19 19 18 17 16 15 15 14 14 14 13 12 11 11 10 9 10 11 11 11 10 10 10
29 29 29 29 29 28 27 27 27 26 26 26 26 26 26 25 24 23 22 21 21 20 19 17 16 15 15 15 15 14 14 13 13 12 11 11 11 11 11 11 11 10
30 31 31 31 31 30 29 28 28 27 27 27 27 27 27 26 26 25 24 24 24 22 21 19 17 16 15 15 15 15 15 15 15 14 13 13 13 12 12 12 11 11
29 32 33 33 33 32 31 29 29 28 28 28 28 28 27 27 27 27 27 26 25 24 22 20 18 17 16 15 15 16 16 16 16 15 15 15 14 14 13 13 12 12
28 30 33 34 34 34 33 31 30 29 29 29 28 28 28 28 28 28 28 28 27 26 24 22 19 18 17 16 16 17 17 17 17 16 16 16 15 15 14 14 13 13
28 28 30 33 34 35 34 33 32 31 30 30 29 29 29 29 28 29 29 29 28 28 26 24 21 19 18 18 17 17 17 17 17 17 17 16 16 15 15 15 14 13
30 28 28 30 33 35 35 35 34 33 31 31 30 30 30 29 29 29 29 29 30 29 28 26 23 22 21 20 19 18 18 18 18 18 18 17 17 16 16 16 16 15
32 30 29 28 31 34 36 37 36 35 33 32 31 31 31 30 30 30 30 30 30 30 29 27 25 24 24 23 21 19 19 19 20 20 19 19 18 18 18 18 17 17
33 32 30 29 29 32 35 38 38 36 35 34 33 33 32 31 30 30 30 31 30 30 30 29 28 27 27 25 24 22 22 21 21 21 21 20 20 20 20 20 19 19
35 33 32 31 30 30 33 35 37 37 37 36 36 35 33 31 31 31 31 31 31 30 30 30 30 29 29 28 27 26 25 24 23 22 22 21 21 21 21 22 22 21
36 36 34 33 32 31 31 32 34 35 37 37 37 36 35 34 34 33 32 31 31 31 31 31 30 31 31 31 30 29 28 27 25 24 23 22 22 22 22 23 24 24
38 37 37 36 35 33 32 31 31 32 35 37 38 38 37 37 36 35 33 33 33 32 32 31 31 32 32 32 32 32 31 29 26 24 24 24 23 23 24 25 25 26
40 40 39 39 38 36 34 33 33 32 33 36 38 39 39 39 38 37 36 35 35 34 32 32 32 32 33 33 33 33 32 30 27 26 25 25 25 25 25 26 26 27
42 42 42 41 41 40 38 37 36 36 35 35 36 37 38 40 40 39 38 37 36 35 34 33 33 33 33 33 34 34 33 31 29 28 27 26 26 27 27 27 27 28
42 43 43 43 43 43 42 42 41 40 38 37 36 36 36 38 39 39 39 38 38 37 36 35 35 35 34 34 35 35 34 32 31 30 28 28 28 29 29 29 29 29
44 44 43 44 44 45 46 46 44 42 40 39 38 36 34 33 35 37 39 39 39 39 39 38 37 37 36 36 37 36 35 34 32 31 29 29 30 31 30 30 29 29
Wind_Direction
193 203 209 206 206 206 204 200 195 193 193 193 195 202 206 204 203 208 211 210 210 213 215 216 216 215 215 209 193 183 181 178 174 170 166 165 169 168 166 166 164 164
196 204 212 211 208 207 207 205 199 195 194 193 193 198 204 206 207 211 216 218 219 219 219 221 222 223 220 211 200 190 184 179 175 171 167 166 170 173 173 172 170 168
200 204 213 215 211 207 208 208 204 198 195 194 194 197 200 205 210 214 218 222 223 223 223 224 225 225 221 215 207 198 189 183 176 173 171 169 172 176 178 177 175 174
203 205 211 215 212 208 208 210 209 203 198 196 196 198 200 204 211 217 220 223 223 223 224 225 225 224 222 219 215 207 196 189 183 177 174 173 173 176 179 179 179 179
205 207 210 214 212 208 207 210 212 209 203 198 197 200 202 204 211 218 221 223 222 221 222 224 224 224 224 224 223 217 205 197 193 186 180 178 176 176 179 180 182 183
206 208 210 213 212 208 206 209 211 211 208 202 199 201 203 205 211 218 221 223 222 220 221 222 223 225 227 228 228 225 216 206 201 196 189 184 181 178 179 181 184 187
209 209 211 213 213 209 207 208 210 211 211 207 202 201 203 205 209 216 221 222 221 220 221 222 223 225 227 229 230 229 226 219 212 206 199 193 187 182 180 182 185 189
213 213 213 214 215 212 209 208 210 211 210 209 207 204 204 205 208 214 219 222 221 220 221 223 225 226 227 229 231 231 230 228 223 216 208 200 194 189 185 184 185 189
220 219 217 217 217 216 213 210 210 211 209 209 209 207 207 207 208 212 216 219 220 220 222 224 226 227 228 229 230 231 231 230 229 225 216 208 202 198 195 192 191 192
227 225 223 222 220 219 218 215 213 212 210 209 209 209 209 209 209 211 214 216 218 220 223 226 226 226 226 227 227 227 227 229 229 227 220 213 210 207 205 202 200 199
229 229 228 226 225 223 221 219 216 214 213 211 210 210 211 211 210 210 212 214 215 217 221 225 227 227 225 224 224 222 222 223 223 224 221 217 216 214 213 212 210 208
231 231 230 229 228 228 225 223 220 217 216 214 212 212 212 211 210 210 210 212 214 215 218 222 227 228 227 225 223 221 219 217 217 218 218 218 219 219 218 217 217 217
235 233 233 231 231 231 229 227 224 221 219 217 215 214 214 213 212 211 210 211 213 214 215 218 222 227 229 227 224 222 220 217 215 215 216 218 220 221 220 220 221 222
237 236 235 234 234 234 233 231 229 226 224 221 219 218 216 215 214 213 212 212 213 213 214 216 219 223 228 228 224 223 222 220 218 216 216 218 220 221 221 222 224 225
239 238 237 237 236 236 236 235 233 232 230 226 223 221 220 219 217 216 215 215 214 214 214 214 216 218 224 227 225 223 223 222 221 220 220 221 222 223 224 224 225 227
238 239 239 239 239 239 238 238 236 235 234 232 229 226 224 223 221 220 218 217 217 217 216 215 214 215 220 224 225 224 224 224 224 224 225 225 225 225 227 228 228 228
238 241 241 240 238 238 240 241 240 238 236 235 235 233 229 226 225 224 223 221 220 220 219 217 215 216 219 222 223 223 224 226 227 228 229 229 229 229 230 232 233 232
237 241 244 243 239 237 237 239 240 240 239 238 237 237 236 233 229 228 226 225 224 224 223 221 219 220 222 224 224 224 226 227 228 230 231 231 231 231 232 234 236 237
236 238 242 245 243 240 238 237 238 239 240 241 239 238 238 238 236 234 231 229 228 227 227 226 224 224 227 228 228 228 229 230 232 233 234 234 234 234 235 237 238 240
239 239 241 244 245 244 241 240 239 239 239 241 241 241 240 240 240 239 237 235 233 231 230 230 228 229 231 232 233 233 233 233 235 237 238 239 239 239 239 240 241 242
242 241 241 242 244 245 245 244 242 241 240 240 241 242 242 241 240 240 240 240 238 235 233 232 232 232 234 236 237 237 238 237 237 239 242 244 244 244 244 244 244 244
243 243 243 242 243 245 246 246 245 243 241 240 239 240 241 242 242 242 241 240 241 240 237 236 235 235 237 239 240 241 242 242 242 242 244 247 248 248 248 249 249 249
243 244 244 244 244 244 244 245 246 244 241 239 238 237 238 240 241 242 242 241 242 242 241 240 239 238 239 241 243 244 245 246 246 246 246 249 250 250 251 252 252 252
243 243 244 245 245 245 244 243 243 242 241 239 237 236 236 237 238 240 241 243 244 244 244 242 242 242 242 243 244 246 247 247 247 246 247 248 250 251 252 252 252 253
245 244 244 245 248 248 247 245 243 242 242 241 239 237 235 235 236 238 239 241 243 244 244 244 244 244 244 245 246 247 247 247 247 246 246 248 249 250 251 251 252 253
245 245 245 245 247 249 250 250 247 245 245 245 245 245 244 241 239 238 237 238 240 242 243 244 245 245 246 246 247 248 249 249 248 248 248 249 248 248 249 250 252 253